Location: Newark
(49.3000°N, 9.4667°E)
Time: 09:04:52
(UTC+00:00)

Tiros 1 despin weight - All Passes

Search period start: 23 May 2019 00:00
Search period end: 02 June 2019 00:00
Orbit: 594 x 643 km, 48.2° (Epoch: 23 May)

Date Brightness Start Highest point End Pass type
(mag) Time Alt. Az. Time Alt. Az. Time Alt. Az.
23 May - 10:05:38 10° SSW 10:09:35 29° SSE 10:13:35 10° E daylight
23 May - 11:46:11 10° WSW 11:50:44 68° SSE 11:55:22 10° E daylight
23 May - 13:27:38 10° W 13:32:15 75° S 13:36:56 10° ESE daylight
23 May - 15:09:15 10° W 15:13:34 39° SSW 15:17:55 10° SE daylight
23 May - 16:52:39 10° WSW 16:54:14 12° SW 16:55:50 10° SSW daylight
24 May - 08:42:59 10° SSE 08:45:16 14° SE 08:47:33 10° ESE daylight
24 May - 10:21:41 10° SW 10:26:00 44° SSE 10:30:23 10° E daylight
24 May - 12:02:45 10° W 12:07:21 78° S 12:12:01 10° E daylight
24 May - 13:44:16 10° W 13:48:51 63° SSW 13:53:29 10° ESE daylight
24 May - 15:26:07 10° W 15:29:57 26° SW 15:33:49 10° SSE daylight
25 May - 08:57:57 10° SSW 09:01:29 23° SE 09:05:04 10° E daylight
25 May - 10:38:02 10° WSW 10:42:30 60° SSE 10:47:04 10° E daylight
25 May - 12:19:23 10° W 12:23:59 79° S 12:28:39 10° E daylight
25 May - 14:00:56 10° W 14:05:23 47° SSW 14:09:53 10° SE daylight
25 May - 15:43:24 10° WSW 15:46:14 16° SW 15:49:04 10° S daylight
26 May - 09:13:44 10° SW 09:17:50 35° SSE 09:22:01 10° E daylight
26 May - 10:54:32 10° WSW 10:59:06 73° S 11:03:43 10° E daylight
26 May - 12:36:01 10° W 12:40:36 71° S 12:45:14 10° ESE daylight
26 May - 14:17:41 10° W 14:21:50 33° SSW 14:26:00 10° SSE daylight
27 May - 07:50:32 10° S 07:53:27 17° SE 07:56:24 10° E daylight
27 May - 09:29:56 10° SW 09:34:17 50° SSE 09:38:45 10° E daylight
27 May - 11:11:09 10° W 11:15:43 79° S 11:20:21 10° E daylight
27 May - 12:52:40 10° W 12:57:11 56° SSW 13:01:44 10° ESE daylight
27 May - 14:34:41 10° W 14:38:10 21° SW 14:41:41 10° SSE daylight
28 May - 08:05:56 10° SSW 08:09:44 27° SSE 08:13:35 10° E daylight
28 May - 09:46:21 10° WSW 09:50:50 66° SSE 09:55:24 10° E daylight
28 May - 11:27:46 10° W 11:32:20 76° S 11:36:59 10° ESE daylight
28 May - 13:09:22 10° W 13:13:40 40° SSW 13:18:03 10° SE daylight
28 May - 14:52:26 10° WSW 14:54:24 13° SW 14:56:23 10° SSW daylight
29 May - 06:43:36 10° SSE 06:45:27 12° SE 06:47:18 10° ESE daylight
29 May - 08:21:55 10° SW 08:26:08 41° SSE 08:30:25 10° E daylight
29 May - 10:02:55 10° W 10:07:27 77° S 10:12:03 10° E daylight
29 May - 11:44:25 10° W 11:48:57 65° SSW 11:53:32 10° ESE daylight
29 May - 13:26:11 10° W 13:30:05 27° SSW 13:34:00 10° SSE daylight
30 May - 06:58:18 10° SSW 07:01:40 21° SE 07:05:03 10° E daylight
30 May - 08:38:13 10° WSW 08:42:38 57° SSE 08:47:07 10° E daylight
30 May - 10:19:32 10° W 10:24:04 79° S 10:28:42 10° E daylight
30 May - 12:01:04 10° W 12:05:29 49° SSW 12:09:58 10° SE daylight
30 May - 13:43:23 10° W 13:46:22 17° SW 13:49:22 10° S daylight
31 May - 07:14:00 10° SSW 07:18:00 32° SSE 07:22:02 10° E daylight
31 May - 08:54:43 10° WSW 08:59:11 71° S 09:03:45 10° E daylight
31 May - 10:36:10 10° W 10:40:42 72° S 10:45:17 10° ESE daylight
31 May - 12:17:48 10° W 12:21:57 34° SSW 12:26:09 10° SE daylight
01 Jun - 05:50:59 10° S 05:53:37 16° SE 05:56:18 10° ESE daylight
01 Jun - 07:30:08 10° SW 07:34:26 47° SSE 07:38:48 10° E daylight
01 Jun - 09:11:18 10° W 09:15:49 79° S 09:20:24 10° E daylight
01 Jun - 10:52:48 10° W 10:57:16 58° SSW 11:01:49 10° ESE daylight
01 Jun - 12:34:45 10° W 12:38:18 22° SW 12:41:54 10° SSE daylight
